Dewpoint
63 56 55 55 50 45 40 33 5 14 12 7 13 11 -3 17 24 15 13 20 15 26 46 54 54 44 46 45 45 56 61 50 50 37 42 64 68 69 69 70 71 71 71 71 71 72 72 72 72 72 72 71 71 71 71 71 71 71 71 70 71 71 71 70 70 70 70 70 69 69 69 68 68 68 68 67 68 69 69 68 69 69 70 70 70 70 70 71 71 70 70 70 70 69 69 70 69
53 52 53 53 47 43 29 28 20 19 12 9 8 15 10 20 28 15 14 19 20 51 58 58 58 59 59 58 58 59 58 61 62 61 65 67 68 69 69 71 71 70 71 71 71 71 71 71 72 72 72 72 72 71 71 71 70 71 70 70 70 71 70 70 70 70 70 69 69 69 69 69 68 67 67 68 69 69 69 69 68 69 68 69 70 70 70 70 70 70 70 69 69 69 69 69 69
50 50 45 47 40 40 36 26 5 20 5 2 2 10 19 15 16 18 20 21 39 56 56 57 58 59 55 55 48 55 52 63 63 65 65 67 65 68 70 71 71 70 71 71 71 70 70 71 72 72 72 71 71 70 70 70 70 70 70 70 70 70 70 70 70 70 69 69 69 69 69 68 68 68 68 67 68 69 69 69 68 68 68 68 69 69 69 69 69 69 69 68 68 69 69 68 69
53 53 44 42 33 35 25 22 16 12 1 2 2 5 14 14 16 18 20 19 17 29 51 52 52 61 56 51 57 60 61 61 64 64 65 65 65 69 70 71 71 70 71 71 71 70 71 72 72 72 71 71 71 71 70 71 71 70 70 70 70 70 70 70 70 70 69 69 69 69 69 69 68 68 67 67 68 69 69 69 69 68 68 69 69 68 68 68 68 69 68 68 69 70 70 70 69
43 48 48 37 34 31 23 24 21 13 -4 12 -1 11 17 21 17 17 20 20 16 20 36 57 57 61 62 61 62 55 60 64 64 65 65 67 69 70 70 71 70 70 70 70 71 70 70 72 72 72 71 71 71 70 71 71 71 71 70 70 70 70 70 70 70 69 69 69 69 69 69 69 69 68 68 67 67 68 70 70 69 69 68 69 69 70 69 68 68 68 67 69 70 70 70 70 70
40 42 43 43 34 33 25 20 21 15 5 12 2 11 13 19 18 19 21 22 19 25 31 56 53 56 60 62 62 60 63 61 64 65 66 67 69 70 70 71 70 70 71 72 71 70 70 73 72 72 72 71 71 71 71 71 71 70 70 70 70 70 70 70 69 69 69 69 69 69 69 69 69 69 69 68 68 68 69 69 70 70 69 68 68 68 69 68 68 67 68 69 70 70 70 70 70
39 39 37 31 30 32 25 20 15 18 14 13 12 17 22 21 21 22 26 23 50 58 59 55 59 59 58 61 62 64 65 65 64 65 67 69 70 70 71 70 69 70 71 72 70 70 70 73 72 72 72 72 71 71 71 70 70 71 70 70 70 69 69 70 70 69 69 69 69 69 69 69 68 69 69 69 69 69 68 69 68 69 69 69 68 68 69 68 67 67 68 70 70 70 70 69 69
41 36 34 28 25 27 23 25 24 24 17 18 20 22 25 25 26 28 25 18 24 49 58 60 60 55 58 63 59 64 66 67 66 68 69 69 69 70 69 70 69 69 70 72 72 71 73 72 72 72 72 72 71 71 70 71 71 71 70 70 70 69 70 70 70 70 69 69 69 69 69 68 69 71 71 71 71 70 70 70 69 69 69 69 69 69 68 67 68 68 69 69 69 70 70 69 69
36 31 33 25 21 24 24 20 20 26 25 26 25 28 36 32 31 29 21 18 22 54 57 58 58 48 59 61 61 64 66 68 68 69 69 70 69 69 69 69 69 69 71 71 71 72 71 72 72 72 72 72 71 71 71 71 71 71 70 70 70 70 70 70 70 70 70 70 70 69 69 69 70 70 70 70 71 70 71 70 69 69 69 69 69 69 68 68 68 69 69 69 69 70 70 69 69
34 31 26 26 24 15 19 17 18 13 19 21 20 20 21 22 21 26 20 16 29 57 59 61 58 53 61 59 61 63 65 68 68 69 70 69 69 69 70 69 70 70 71 71 71 71 70 73 73 72 72 72 71 71 71 71 71 70 70 71 71 71 71 71 71 71 70 70 70 70 70 70 70 70 70 70 71 71 70 71 70 70 70 70 69 68 69 69 69 69 69 69 69 69 69 69 69
28 30 29 18 18 16 13 10 17 19 20 23 24 23 23 22 22 21 16 39 54 56 59 60 60 60 60 61 62 64 67 67 68 68 69 69 69 69 70 71 71 71 71 71 71 71 71 71 73 72 72 72 72 71 71 71 71 71 71 71 71 71 71 71 71 71 71 70 70 71 70 70 70 70 71 71 71 71 71 70 69 70 70 69 69 69 69 69 70 70 69 69 69 69 69 69 68
27 28 20 21 18 12 12 14 15 19 23 24 17 17 12 20 22 22 29 43 56 57 56 58 53 60 58 59 62 65 66 67 67 68 68 69 69 69 70 71 71 71 72 72 71 71 71 71 71 73 72 72 72 72 71 71 71 71 71 72 72 72 71 71 71 71 71 71 71 71 71 71 70 71 72 71 71 70 70 70 70 69 69 69 69 69 69 70 70 70 70 69 69 69 69 68 68
29 25 21 17 15 19 26 23 21 27 26 15 12 13 13 18 15 22 44 54 56 51 53 57 61 59 58 61 63 65 65 66 67 68 68 68 69 69 70 70 70 71 72 71 71 71 71 70 70 70 72 73 72 72 72 71 72 72 72 72 72 72 71 71 71 71 71 71 71 70 71 71 71 72 71 71 70 70 70 70 70 69 69 69 69 69 69 70 70 70 70 69 69 69 68 68 67
30 28 21 10 24 22 20 16 20 19 14 13 13 13 13 17 15 40 52 52 52 53 60 61 60 62 61 62 63 63 64 66 67 68 68 68 68 69 69 70 70 71 71 71 71 71 71 70 70 70 71 71 72 72 72 72 72 72 72 72 72 72 72 71 71 71 71 71 71 71 72 72 71 71 71 71 70 70 70 70 70 70 69 69 69 69 69 70 70 70 70 69 69 68 68 68 67
32 29 28 26 22 21 20 14 16 18 9 12 10 10 26 39 42 51 52 53 56 59 61 62 59 58 55 58 61 63 63 66 67 67 67 68 68 68 68 69 70 71 70 70 71 71 70 70 69 70 71 70 71 71 71 71 72 72 72 72 72 72 72 71 71 71 71 71 71 72 72 72 71 71 71 70 70 70 70 70 70 69 69 69 69 69 69 70 70 70 69 68 69 68 68 67 66
33 26 27 23 19 20 17 19 17 16 12 13 10 11 23 49 46 51 51 52 58 61 61 57 62 57 58 57 60 63 64 66 67 68 67 67 67 67 67 68 69 70 70 71 71 71 70 69 70 70 70 70 71 71 71 71 72 72 72 72 72 72 72 72 72 72 71 71 71 71 71 71 71 71 71 70 70 70 69 69 70 69 69 69 69 69 69 69 70 69 69 69 68 68 67 67 66
28 29 24 24 17 18 17 18 14 8 10 11 12 13 27 46 53 58 59 60 57 59 62 63 63 64 61 60 63 64 65 67 67 67 67 66 65 66 67 68 68 69 69 69 70 70 70 70 69 69 70 70 71 70 70 71 71 72 72 72 72 72 72 72 72 72 72 71 71 70 70 70 72 71 70 70 70 69 70 70 70 70 69 69 69 69 69 69 69 69 68 68 68 67 67 67 66
29 28 25 21 20 17 18 16 12 9 10 11 14 14 9 46 56 57 58 59 60 61 62 63 63 63 64 64 65 65 66 66 66 65 65 64 64 64 65 66 67 67 68 69 70 70 70 69 69 69 69 69 70 70 70 71 70 71 71 71 70 71 71 72 71 70 70 70 70 71 72 71 71 72 70 70 70 70 69 70 70 69 69 69 69 68 69 68 68 69 68 68 68 67 67 65 66
27 27 25 14 20 18 20 16 15 12 12 13 15 13 10 47 55 53 51 56 57 58 61 62 61 63 64 64 64 65 65 66 66 65 64 64 63 63 63 65 65 66 67 68 69 70 70 70 70 70 69 69 70 69 70 70 70 70 70 70 70 70 70 70 69 69 69 69 69 69 72 71 70 70 72 69 69 69 69 70 70 69 69 69 69 69 69 69 69 68 68 67 68 68 66 65 63
28 26 21 19 22 20 19 18 17 14 14 15 15 12 7 9 21 37 47 54 55 52 60 60 62 61 63 63 64 64 65 65 66 65 64 64 63 64 63 64 64 65 66 67 68 69 70 71 70 70 70 70 70 69 70 70 70 70 69 69 69 70 70 70 69 69 69 69 69 70 71 71 71 71 70 70 70 69 69 69 69 69 69 69 69 69 69 69 69 69 69 68 67 66 65 63 62
27 25 21 20 21 21 21 19 19 18 16 16 12 10 7 8 13 36 54 44 47 51 58 60 61 62 63 63 63 64 64 64 64 65 65 64 64 65 65 65 63 64 65 66 67 68 69 71 70 70 70 71 70 70 70 69 70 69 69 68 69 69 70 70 70 70 69 69 70 70 69 70 70 70 71 69 68 68 68 68 68 67 67 67 67 67 67 66 67 65 66 65 65 65 65 63 61
26 26 26 25 18 21 21 20 18 16 17 12 12 8 6 8 39 47 47 12 13 36 50 60 62 63 62 63 63 64 64 64 64 65 65 65 64 65 65 65 66 66 66 66 66 67 68 70 69 70 70 70 70 69 69 69 69 68 68 68 68 70 69 70 70 70 70 71 71 69 69 70 70 69 69 68 67 68 67 67 66 67 67 67 67 67 67 67 66 65 65 65 65 65 64 62 62
21 22 22 23 22 23 22 17 14 14 14 13 12 9 9 7 10 44 39 21 27 43 56 62 62 62 63 63 63 63 63 64 64 65 65 64 65 65 65 65 65 65 66 65 66 67 68 69 69 70 69 70 69 69 69 68 69 68 68 68 68 70 70 69 69 69 70 70 70 69 69 71 70 68 68 68 67 67 67 67 66 67 67 66 67 66 67 67 66 65 65 65 64 63 62 61 61
21 19 20 19 18 20 20 18 17 15 14 13 11 11 10 8 4 33 43 36 48 53 62 63 62 62 62 62 63 63 63 63 64 65 65 65 65 65 65 65 65 66 65 66 67 67 68 69 69 69 69 70 70 70 69 68 68 69 69 70 69 70 70 69 69 69 70 70 70 69 69 69 68 68 68 67 67 67 67 67 67 66 66 66 66 67 66 66 65 65 66 64 62 61 60 60 59
23 22 22 22 19 18 17 15 13 12 12 13 12 11 11 8 7 27 19 37 63 62 63 63 62 62 62 62 63 63 64 64 64 65 66 65 65 66 66 65 66 65 64 66 66 67 68 68 68 69 70 70 70 70 69 68 69 70 70 70 70 69 70 70 69 70 70 70 70 69 70 69 68 68 67 67 67 67 67 67 66 66 66 66 66 65 67 66 66 65 65 63 63 62 62 62 60
21 24 18 18 19 19 16 12 10 9 9 12 11 10 9 8 9 7 15 52 63 63 63 62 62 62 62 62 63 63 63 64 64 65 65 65 65 65 65 65 65 65 64 66 66 66 67 68 68 69 69 69 70 70 69 69 69 69 69 70 70 69 70 70 70 69 70 69 69 69 69 69 68 67 67 67 66 67 67 67 66 66 65 66 66 65 66 66 65 65 65 64 61 61 60 63 63
20 22 21 22 21 14 12 9 11 9 8 11 6 8 8 9 7 9 57 62 63 63 62 63 62 61 62 62 63 64 63 63 64 65 65 64 64 64 65 65 65 65 66 66 66 66 68 68 67 69 70 70 70 69 70 70 69 68 68 69 70 69 69 70 70 69 68 69 69 69 69 69 68 67 67 67 67 67 67 67 66 66 65 66 66 65 66 67 66 65 65 64 64 62 62 63 62
16 17 14 14 12 9 10 9 9 8 5 11 7 7 9 9 7 7 52 63 63 62 62 62 62 62 62 62 62 63 63 64 64 64 64 64 63 63 64 63 65 65 65 65 65 67 68 68 68 68 69 70 69 68 70 70 69 68 68 69 69 68 69 69 69 69 69 68 69 69 69 69 68 67 67 66 66 66 66 66 66 66 65 65 65 66 65 67 66 66 66 66 65 65 64 64 65
13 11 11 11 9 10 10 7 7 10 5 10 10 6 5 7 5 9 24 62 62 62 62 62 62 62 62 62 62 62 62 63 63 63 64 65 65 64 64 65 65 64 65 66 66 67 67 67 67 68 69 69 69 69 69 69 69 68 68 68 68 69 69 68 69 68 68 68 69 69 69 68 68 66 67 66 66 65 65 66 65 66 65 65 65 65 66 66 66 66 66 66 65 65 64 64 64
12 10 9 11 7 7 7 12 9 7 6 9 8 5 7 7 8 8 20 61 61 61 62 62 62 62 62 62 62 62 62 63 63 63 64 65 65 64 64 66 66 66 64 66 67 66 67 67 68 68 68 69 69 70 69 69 68 69 68 69 70 68 68 68 69 69 69 68 69 68 68 68 67 66 66 66 66 65 66 65 65 65 65 66 65 65 65 65 63 65 65 65 65 64 64 64 63
12 10 10 13 9 8 7 8 9 6 11 9 7 10 6 7 10 15 12 53 61 60 61 61 63 62 62 62 62 62 62 63 63 64 65 66 65 64 65 66 66 67 65 66 66 66 67 67 68 67 68 68 69 69 69 68 68 68 68 69 69 70 69 68 67 69 69 69 68 68 68 68 67 67 67 67 66 66 66 65 65 65 65 66 65 65 64 65 65 64 64 63 64 64 63 63 63
13 10 11 9 8 6 7 17 15 5 7 9 7 12 6 9 25 31 34 55 60 59 60 61 62 62 62 62 62 61 61 63 63 64 65 65 65 64 65 65 65 66 65 66 66 67 67 67 68 67 67 68 68 68 68 68 68 68 69 68 69 69 69 68 69 69 69 70 69 68 68 68 67 67 67 67 67 66 66 66 65 65 65 66 64 65 65 63 65 64 65 65 63 63 63 63 63
14 12 19 10 7 5 4 7 9 9 8 7 7 3 5 11 38 42 40 51 58 57 59 61 61 62 62 62 62 62 62 62 63 63 64 64 64 64 65 65 65 66 67 66 66 67 67 67 67 67 67 67 68 68 68 68 69 68 68 68 68 68 69 69 69 69 69 69 69 68 68 68 67 67 67 67 68 68 67 66 65 65 66 65 65 65 64 64 64 65 65 65 65 63 63 62 63
12 15 14 16 6 6 4 8 8 11 7 5 8 6 23 36 44 46 49 43 49 55 56 59 61 62 63 62 62 62 62 62 62 62 64 65 64 65 65 65 66 66 65 66 66 66 66 66 67 66 66 67 68 67 68 68 68 68 68 68 68 68 68 67 68 68 68 69 69 68 68 68 68 67 67 68 69 68 67 67 66 66 66 66 66 65 64 64 65 65 64 65 65 64 62 63 63
13 15 19 12 12 13 6 7 8 9 10 9 16 30 42 44 46 48 50 51 48 47 45 53 59 61 62 62 62 62 62 62 62 63 63 64 64 64 64 65 66 65 65 65 65 66 66 65 65 66 66 66 66 67 67 67 67 67 68 67 67 67 67 69 69 68 68 68 69 68 68 69 69 67 67 68 68 68 68 67 67 66 67 66 66 65 65 65 65 66 65 64 65 64 63 64 63
9 11 12 12 10 7 6 8 11 12 12 18 26 36 43 45 47 48 50 51 51 51 52 52 56 59 61 61 62 62 62 62 63 62 63 63 64 64 64 64 65 64 64 64 63 63 63 63 65 65 65 66 66 67 66 66 66 67 66 66 66 67 66 66 67 68 68 68 68 68 67 68 67 66 66 66 67 67 68 67 67 67 67 66 65 65 64 64 65 66 66 63 64 63 63 63 63
13 12 10 8 7 7 9 9 10 12 28 36 42 44 44 46 47 48 49 51 51 51 52 52 52 54 58 60 61 61 62 62 61 62 62 63 63 63 63 64 64 63 63 63 63 63 63 64 63 63 65 65 65 65 66 65 65 65 66 65 65 66 66 66 66 67 67 66 67 67 67 68 67 66 66 67 67 67 67 66 66 67 67 66 66 66 66 65 65 65 64 64 63 62 63 63 63
10 8 8 8 7 5 7 9 11 14 25 37 40 41 43 45 47 48 49 51 50 51 51 52 52 53 54 55 58 60 61 62 62 62 62 62 62 63 64 63 63 61 62 63 64 64 63 63 63 63 65 65 65 65 66 65 66 65 64 64 65 65 64 65 65 66 66 67 67 67 67 67 67 67 66 66 67 68 65 65 65 65 66 66 67 67 66 65 65 65 64 63 63 63 62 63 63
16 10 11 9 7 9 13 16 18 14 27 35 39 40 41 44 48 49 49 50 51 52 52 52 53 53 54 55 56 57 58 58 60 60 61 61 62 63 62 62 62 62 63 63 63 64 63 63 64 64 65 65 65 65 66 65 66 66 65 65 65 64 65 65 65 66 67 67 67 67 67 67 66 66 66 66 66 66 66 66 66 67 66 65 65 65 65 64 64 64 64 62 61 62 62 63 63
17 13 12 9 10 10 11 18 19 19 24 35 40 40 41 44 47 49 50 51 51 51 51 52 53 55 56 56 57 57 57 58 58 59 60 60 61 62 62 61 62 63 63 62 62 62 63 64 64 65 65 66 65 65 66 66 66 66 66 66 65 65 64 66 66 66 66 67 66 66 67 67 66 66 65 66 66 66 66 66 66 66 65 65 66 65 65 64 64 64 64 63 62 61 61 62 62
22 16 10 8 11 11 14 16 19 24 30 38 36 37 39 42 43 45 49 50 49 49 51 52 53 54 55 54 54 55 55 56 57 58 60 60 61 61 62 63 63 63 63 63 63 63 63 64 65 66 65 66 65 66 66 66 66 66 66 65 65 64 64 65 65 64 65 65 66 66 66 66 66 66 66 66 66 66 66 66 65 65 65 65 65 65 64 63 63 63 63 63 63 61 60 61 62
16 23 12 10 12 10 16 18 15 18 30 28 13 21 33 39 43 45 47 48 49 50 50 51 52 53 52 52 52 53 53 54 55 55 56 58 60 61 61 62 62 62 63 63 64 64 64 64 65 65 66 65 65 66 66 66 65 65 65 64 62 61 62 63 62 63 64 64 65 66 66 65 65 65 66 65 64 65 65 65 65 65 66 65 64 64 64 64 62 62 63 63 63 64 62 60 61
17 13 15 13 12 15 14 10 14 14 14 22 23 14 31 36 41 44 46 47 48 49 50 51 51 50 50 51 51 51 51 52 52 53 54 55 57 58 58 58 59 60 61 62 63 64 64 64 64 64 65 65 65 66 66 66 66 65 64 64 64 63 62 62 65 65 65 65 65 66 65 66 65 65 65 64 63 64 65 65 65 66 65 65 65 65 65 62 62 61 62 63 63 62 62 60 60
11 14 15 14 13 10 12 10 11 15 24 22 21 25 30 32 39 43 46 47 47 48 49 50 50 50 49 49 49 50 50 50 50 51 52 52 53 55 56 57 58 58 60 60 61 62 62 62 63 64 63 63 65 65 66 65 65 65 64 64 63 63 63 63 63 63 64 65 66 65 66 65 65 65 65 64 64 64 65 65 65 65 65 63 65 64 64 65 64 63 63 63 63 62 63 61 61
11 17 13 12 10 10 13 9 14 21 20 12 16 24 30 34 39 43 45 44 45 47 49 49 49 48 48 48 48 49 49 50 49 50 50 51 51 52 53 54 55 55 57 58 59 61 62 62 62 62 63 63 65 65 66 66 65 65 65 63 63 64 65 63 63 63 64 65 65 66 65 65 65 66 65 64 64 64 65 64 65 65 65 65 64 65 64 64 64 64 63 63 63 63 63 63 62
12 19 20 21 19 18 13 13 11 20 15 13 17 23 23 33 38 40 43 43 45 48 48 49 49 48 47 47 47 47 47 48 48 49 49 49 50 51 53 53 53 54 56 56 57 58 59 60 61 61 61 62 63 63 65 65 65 65 65 64 64 64 63 63 63 63 63 65 64 64 65 65 64 65 65 64 64 64 64 64 64 64 64 65 65 64 64 64 64 64 63 63 63 63 64 64 63
18 16 15 15 16 20 23 23 20 17 12 14 17 21 23 26 36 40 40 42 46 47 49 49 48 47 46 46 46 46 45 46 47 48 48 49 50 51 51 51 51 52 54 54 56 56 57 58 58 59 61 61 62 61 62 63 65 65 65 65 64 64 64 63 63 63 63 64 63 64 64 63 64 64 65 64 65 64 64 64 64 64 65 65 64 64 64 64 65 65 64 64 63 63 63 63 63
16 14 15 14 17 20 20 21 22 14 10 18 28 23 18 19 37 43 45 49 47 47 47 46 46 46 45 45 45 45 45 45 46 46 46 47 48 49 49 49 50 51 52 52 53 55 55 56 57 58 60 61 61 61 62 63 65 64 63 64 64 64 64 63 62 62 62 62 63 63 64 64 64 64 65 64 64 64 64 65 64 64 64 64 64 64 64 64 65 64 64 64 63 63 64 63 63
14 15 13 8 13 21 13 14 13 10 10 22 20 22 30 39 39 45 48 48 47 47 46 46 46 44 44 44 44 44 45 45 45 45 46 46 46 47 48 48 49 49 50 51 51 53 53 54 55 56 57 59 60 62 62 61 62 62 62 62 63 63 63 64 64 63 63 63 62 62 63 63 64 63 64 63 63 63 63 64 63 63 63 63 63 64 64 64 65 64 64 62 64 62 62 62 62
14 12 16 10 10 11 11 10 16 14 15 18 27 27 37 41 44 45 47 48 46 46 46 45 44 44 44 44 44 44 44 44 45 45 45 46 46 46 47 47 47 48 48 49 50 51 52 52 53 54 55 56 58 60 61 62 62 62 62 61 62 62 62 62 62 62 62 63 62 63 63 63 63 63 62 62 63 64 64 64 63 64 63 63 63 64 64 64 64 64 64 64 62 63 64 63 63
12 15 13 21 16 10 11 9 11 10 14 23 31 23 34 35 39 48 47 46 45 44 44 45 44 44 44 43 43 43 44 44 44 44 45 45 45 46 46 47 47 47 47 48 48 49 50 50 51 51 52 53 55 56 58 60 62 62 62 62 62 62 62 62 62 62 62 62 63 62 63 64 63 63 63 63 63 63 63 63 63 63 63 63 64 64 64 65 64 64 63 63 63 64 63 63 63
14 14 14 17 15 26 10 18 18 16 17 19 32 34 40 39 47 48 46 45 44 44 43 44 43 43 43 43 43 43 43 43 44 44 44 44 45 45 45 46 46 46 47 47 47 48 49 49 50 51 51 52 54 54 55 56 59 61 62 61 62 62 62 62 62 62 62 62 63 63 63 64 64 64 64 63 63 63 63 62 63 63 63 63 64 64 64 64 63 63 64 63 63 63 63 63 62
18 12 15 15 21 20 20 20 25 27 22 26 30 37 41 44 47 47 45 43 43 43 42 42 43 43 43 42 42 43 43 43 43 43 43 44 43 44 44 45 45 45 45 46 46 47 47 47 48 49 49 49 51 52 53 55 56 58 61 61 62 61 61 61 61 62 62 63 63 63 63 63 63 63 63 63 63 63 63 63 62 63 63 63 63 64 64 64 63 63 63 63 62 63 63 62 63
15 14 15 20 19 22 21 12 16 16 12 24 34 35 36 38 35 46 45 42 42 42 42 42 43 42 42 42 42 42 42 43 43 43 43 43 43 43 43 44 44 44 45 45 45 46 47 47 47 47 47 48 49 49 51 53 54 55 57 60 62 62 62 62 63 62 62 62 63 63 63 62 62 63 63 63 63 63 64 63 62 63 62 63 64 64 64 63 63 64 63 63 64 63 62 63 63
14 14 17 15 15 13 21 20 12 13 20 26 31 34 36 35 38 44 43 43 42 42 42 41 41 41 41 41 42 42 42 42 42 42 42 41 41 41 42 43 43 43 45 45 45 46 46 46 46 46 47 47 48 48 50 51 53 53 55 57 60 62 62 62 62 62 62 62 62 62 62 63 62 63 63 63 63 62 63 63 63 62 63 62 63 63 63 63 63 63 63 63 63 63 62 62 62
17 18 15 24 24 24 15 16 20 16 20 26 29 32 31 37 41 42 44 43 42 41 41 41 41 41 41 41 41 41 41 41 41 41 40 40 40 40 41 42 42 43 43 44 45 46 46 46 46 46 47 47 48 48 49 49 50 52 53 55 57 59 62 62 62 62 62 61 61 62 62 62 63 63 62 63 63 62 63 62 63 63 63 63 63 63 64 63 63 62 63 62 63 62 62 62 62
16 18 19 19 26 22 21 24 16 16 25 24 28 27 31 40 44 45 44 43 42 41 41 41 41 41 41 41 41 41 40 40 40 39 38 39 39 39 40 41 41 42 43 44 45 45 45 45 46 46 46 47 47 48 48 49 49 50 52 54 55 58 61 63 63 62 62 62 62 62 62 63 63 62 62 62 63 62 62 62 62 62 62 63 62 62 63 64 63 62 63 62 62 62 61 62 63
17 17 18 18 17 14 12 14 25 24 26 25 24 25 34 41 44 46 43 42 42 41 41 41 41 41 41 41 40 40 39 39 39 38 38 38 39 39 40 40 41 41 41 42 43 44 44 45 45 45 46 46 47 47 47 48 49 50 51 53 54 56 57 60 62 63 62 62 62 62 62 62 62 63 62 62 62 62 62 62 62 62 62 62 62 62 62 63 63 62 62 61 61 61 62 61 62